Time[GMT],significant_wave_height[m](0m),dominant_wave_period[s](0m)
2018-07-10 20:00, 0.42,8.0
2018-07-10 20:30, 0.46,6.4
2018-07-10 21:00, 0.52,8.0
2018-07-10 21:30, 0.43,8.0
2018-07-10 22:00, 0.46,8.0
2018-07-10 22:30, 0.40,8.0
2018-07-10 23:00, 0.41,8.0
2018-07-10 23:30, 0.44,8.0
2018-07-11 00:00, 0.42,8.0
2018-07-11 00:30, 0.45,8.0
2018-07-11 01:00, 0.45,8.0
2018-07-11 01:30, 0.40,5.3
2018-07-11 02:00, 0.38,8.0
2018-07-11 02:30, 0.40,8.0
2018-07-11 03:00, 0.30,1.8
2018-07-11 03:30, 0.50,8.0
2018-07-11 04:00, 0.55,5.3
2018-07-11 04:30, 0.51,8.0
2018-07-11 05:00, 0.44,5.3
2018-07-11 05:30, 0.52,8.0
2018-07-11 06:00, 0.49,8.0
2018-07-11 06:30, 0.34,3.6
2018-07-11 07:00, 0.52,8.0
2018-07-11 07:30, 0.46,8.0
2018-07-11 08:00, 0.43,8.0
2018-07-11 08:30, 0.51,6.4
2018-07-11 09:00, 0.49,8.0
2018-07-11 09:30, 0.54,6.4
2018-07-11 10:00, 0.62,8.0
2018-07-11 10:30, 0.59,8.0
2018-07-11 11:00, 0.56,8.0
2018-07-11 11:30, 0.70,8.0
2018-07-11 12:00, 0.55,5.3
2018-07-11 12:30, 0.64,8.0
2018-07-11 13:00, 0.76,8.0
2018-07-11 13:30, 0.61,3.2
2018-07-11 14:00, 0.77,3.6
2018-07-11 14:30, 0.62,3.6
2018-07-11 15:00, 0.64,3.6
2018-07-11 15:30, 0.77,4.0
2018-07-11 16:00, 0.73,4.0
2018-07-11 16:30, 0.73,4.0
2018-07-11 17:00, 0.91,4.0
2018-07-11 17:30, 0.97,4.6
2018-07-11 18:00, 0.93,4.0
2018-07-11 18:30, 0.91,4.6
2018-07-11 19:00, 0.85,4.6
2018-07-11 19:30, 0.82,4.6
2018-07-11 20:00, 0.78,4.6
2018-07-11 20:30, 0.91,4.6
2018-07-11 21:00, 0.80,5.3
2018-07-11 21:30, 1.07,4.6
2018-07-11 22:00, 0.89,4.6
2018-07-11 22:30, 0.91,5.3
2018-07-11 23:00, 0.80,4.6
2018-07-11 23:30, 0.81,4.6
2018-07-12 00:00, 0.83,5.3
2018-07-12 00:30, 0.77,5.3
2018-07-12 01:00, 0.68,5.3
2018-07-12 01:30, 0.74,4.6
2018-07-12 02:00, 0.60,5.3
2018-07-12 02:30, 0.85,10.7
2018-07-12 03:00, 0.49,4.6
2018-07-12 03:30, 0.63,5.3
2018-07-12 04:00, 0.65,5.3
2018-07-12 04:30, 0.60,4.6
2018-07-12 05:00, 0.58,8.0
2018-07-12 05:30, 0.45,4.6
2018-07-12 06:00, 0.57,8.0
2018-07-12 06:30, 0.58,8.0
2018-07-12 07:00, 0.53,8.0
2018-07-12 07:30, 0.56,8.0
2018-07-12 08:00, 0.53,8.0
2018-07-12 08:30, 0.56,8.0
2018-07-12 09:00, 0.39,6.4
2018-07-12 09:30, 0.59,8.0
2018-07-12 10:00, 0.52,8.0
2018-07-12 10:30, 0.58,8.0
2018-07-12 11:00, 0.58,8.0
2018-07-12 11:30, 0.25,2.9
2018-07-12 12:00, 0.57,8.0
2018-07-12 12:30, 0.67,8.0
2018-07-12 13:00, 0.68,8.0
2018-07-12 13:30, 0.44,3.2
2018-07-12 14:00, 0.65,8.0
2018-07-12 14:30, 0.66,8.0
2018-07-12 15:00, 0.68,8.0
2018-07-12 15:30, 0.53,3.6
2018-07-12 16:00, 0.52,4.0
2018-07-12 16:30, 0.54,3.6
2018-07-12 17:00, 0.48,4.0
2018-07-12 17:30, 0.73,10.7
2018-07-12 18:00, 0.75,10.7
2018-07-12 18:30, 0.79,10.7
2018-07-12 19:00, 0.81,10.7
2018-07-12 19:30, 0.79,10.7
2018-07-12 20:00, 0.68,10.7
2018-07-12 20:30, 0.74,10.7
2018-07-12 21:00, 0.69,10.7
2018-07-12 21:30, 0.69,10.7
2018-07-12 22:00, 0.75,10.7
2018-07-12 22:30, 0.62,10.7
2018-07-12 23:00, 0.69,10.7
2018-07-12 23:30, 0.68,10.7
2018-07-13 00:00,,
2018-07-13 00:30, 0.75,10.7
2018-07-13 01:00, 0.72,10.7
2018-07-13 01:30, 0.64,8.0
2018-07-13 02:00,,
2018-07-13 02:30, 0.71,10.7
2018-07-13 03:00,,
2018-07-13 03:30, 0.64,10.7
2018-07-13 04:00, 0.71,10.7
2018-07-13 04:30, 0.78,10.7
2018-07-13 05:00,,
2018-07-13 05:30, 0.72,10.7
2018-07-13 06:00, 0.77,10.7
2018-07-13 06:30, 0.81,10.7
2018-07-13 07:00, 0.71,10.7
2018-07-13 07:30, 0.61,8.0
2018-07-13 08:00, 0.57,8.0
2018-07-13 08:30, 0.62,8.0
2018-07-13 09:00, 0.69,10.7
2018-07-13 09:30, 0.66,10.7
2018-07-13 10:00, 0.68,10.7
2018-07-13 10:30, 0.56,10.7
2018-07-13 11:00, 0.64,10.7
2018-07-13 11:30, 0.61,10.7
2018-07-13 12:00, 0.60,8.0
2018-07-13 12:30, 0.56,10.7
2018-07-13 13:00, 0.60,10.7
2018-07-13 13:30, 0.67,8.0
2018-07-13 14:00,,
2018-07-13 14:30, 0.65,8.0
2018-07-13 15:00,,
2018-07-13 15:30, 0.56,8.0
2018-07-13 16:00, 0.32,2.7
2018-07-13 16:30, 0.35,2.7
2018-07-13 17:00, 0.41,3.2
2018-07-13 17:30, 0.42,2.9
2018-07-13 18:00, 0.39,2.9
2018-07-13 18:30, 0.70,8.0
2018-07-13 19:00, 0.78,8.0
2018-07-13 19:30, 0.82,8.0
2018-07-13 20:00, 0.83,8.0
2018-07-13 20:30, 0.80,8.0
2018-07-13 21:00, 0.80,8.0
2018-07-13 21:30, 0.96,8.0
2018-07-13 22:00, 0.90,8.0
2018-07-13 22:30, 0.83,8.0
2018-07-13 23:00, 0.83,6.4
2018-07-13 23:30, 0.81,6.4
2018-07-14 00:00, 0.89,4.0
2018-07-14 00:30, 0.80,8.0
2018-07-14 01:00, 0.77,8.0
2018-07-14 01:30, 0.87,8.0
2018-07-14 02:00, 0.72,8.0
2018-07-14 02:30, 0.76,8.0
2018-07-14 03:00, 0.73,8.0
2018-07-14 03:30, 0.70,8.0
2018-07-14 04:00, 0.73,8.0
2018-07-14 04:30, 0.77,8.0
2018-07-14 05:00, 0.73,10.7
2018-07-14 05:30, 0.68,8.0
2018-07-14 06:00, 0.58,8.0
2018-07-14 06:30, 0.70,8.0
2018-07-14 07:00, 0.60,8.0
2018-07-14 07:30, 0.69,8.0
2018-07-14 08:00, 0.62,8.0
2018-07-14 08:30, 0.64,8.0
2018-07-14 09:00, 0.60,8.0
2018-07-14 09:30, 0.69,8.0
2018-07-14 10:00, 0.48,8.0
2018-07-14 10:30, 0.58,8.0
2018-07-14 11:00, 0.50,8.0
2018-07-14 11:30, 0.50,6.4
2018-07-14 12:00, 0.61,6.4
2018-07-14 12:30, 0.55,6.4
2018-07-14 13:00, 0.64,8.0
2018-07-14 13:30, 0.63,8.0
2018-07-14 14:00, 0.57,8.0
2018-07-14 14:30, 0.55,8.0
2018-07-14 15:00, 0.57,8.0
2018-07-14 15:30, 0.29,3.2
2018-07-14 16:00, 0.62,8.0
2018-07-14 16:30, 0.57,6.4
2018-07-14 17:00, 0.48,8.0
2018-07-14 17:30, 0.25,2.9
2018-07-14 18:00, 0.34,4.6
2018-07-14 18:30, 0.27,4.0
2018-07-14 19:00, 0.55,8.0
2018-07-14 19:30, 0.32,2.5
2018-07-14 20:00, 0.61,8.0
2018-07-14 20:30, 0.38,2.7
2018-07-14 21:00, 0.37,2.5
2018-07-14 21:30, 0.53,6.4
2018-07-14 22:00, 0.61,6.4
2018-07-14 22:30, 0.73,8.0
2018-07-14 23:00, 0.65,6.4
2018-07-14 23:30, 0.64,6.4
2018-07-15 00:00, 0.79,2.9
2018-07-15 00:30, 0.77,3.2
2018-07-15 01:00, 0.75,5.3
2018-07-15 01:30, 0.74,5.3
2018-07-15 02:00, 0.81,3.6
2018-07-15 02:30, 0.76,3.6
2018-07-15 03:00, 0.82,4.0
2018-07-15 03:30, 0.80,6.4
2018-07-15 04:00, 0.86,8.0
2018-07-15 04:30, 0.80,8.0
2018-07-15 05:00, 0.48,3.6
2018-07-15 05:30, 0.77,6.4
2018-07-15 06:00, 0.67,6.4
2018-07-15 06:30, 0.67,6.4
2018-07-15 07:00, 0.69,6.4
2018-07-15 07:30, 0.73,8.0
2018-07-15 08:00, 0.43,3.2
2018-07-15 08:30, 0.42,3.2
2018-07-15 09:00, 0.66,6.4
2018-07-15 09:30, 0.63,6.4
2018-07-15 10:00, 0.38,3.6
2018-07-15 10:30, 0.80,6.4
2018-07-15 11:00, 0.53,6.4
2018-07-15 11:30, 0.73,8.0
2018-07-15 12:00, 0.62,6.4
2018-07-15 12:30, 0.56,6.4
2018-07-15 13:00, 0.58,6.4
2018-07-15 13:30, 0.55,6.4
2018-07-15 14:00, 0.72,6.4
2018-07-15 14:30, 0.67,6.4
2018-07-15 15:00, 0.63,5.3
2018-07-15 15:30, 0.59,5.3
2018-07-15 16:00, 0.57,4.6
2018-07-15 16:30, 0.58,6.4
2018-07-15 17:00, 0.52,6.4
2018-07-15 17:30, 0.62,6.4
2018-07-15 18:00, 0.69,6.4
2018-07-15 18:30, 0.64,8.0
2018-07-15 19:00, 0.67,10.7
2018-07-15 19:30, 0.68,10.7
2018-07-15 20:00, 0.70,6.4
2018-07-15 20:30, 0.53,6.4
2018-07-15 21:00, 0.49,6.4
2018-07-15 21:30, 0.72,10.7
2018-07-15 22:00, 0.74,10.7
2018-07-15 22:30, 0.62,10.7
2018-07-15 23:00,,
2018-07-15 23:30, 0.68,10.7
2018-07-16 00:00, 0.65,6.4
2018-07-16 00:30, 0.70,6.4
2018-07-16 01:00, 0.72,8.0
2018-07-16 01:30, 0.75,8.0
2018-07-16 02:00, 0.70,10.7
2018-07-16 02:30, 0.70,10.7
2018-07-16 03:00, 0.60,8.0
2018-07-16 03:30, 0.68,10.7
2018-07-16 04:00, 0.66,8.0
2018-07-16 04:30, 0.62,8.0
2018-07-16 05:00, 0.65,8.0
2018-07-16 05:30, 0.65,8.0
2018-07-16 06:00, 0.62,10.7
2018-07-16 06:30, 0.70,8.0
2018-07-16 07:00, 0.60,10.7
2018-07-16 07:30, 0.69,10.7
2018-07-16 08:00, 0.73,10.7
2018-07-16 08:30, 0.58,8.0
2018-07-16 09:00, 0.62,8.0
2018-07-16 09:30, 0.67,8.0
2018-07-16 10:00, 0.78,10.7
2018-07-16 10:30, 0.79,8.0
2018-07-16 11:00, 0.73,8.0
2018-07-16 11:30, 0.82,8.0
2018-07-16 12:00, 0.74,8.0
2018-07-16 12:30, 0.86,8.0
2018-07-16 13:00, 0.88,8.0
2018-07-16 13:30, 0.78,8.0
2018-07-16 14:00, 0.77,8.0
2018-07-16 14:30, 0.78,8.0
2018-07-16 15:00, 0.64,8.0
2018-07-16 15:30, 0.71,8.0
2018-07-16 16:00, 0.82,10.7
2018-07-16 16:30, 0.73,8.0
2018-07-16 17:00, 0.71,10.7
2018-07-16 17:30, 0.72,8.0
2018-07-16 18:00, 0.64,8.0
2018-07-16 18:30, 0.63,8.0
2018-07-16 19:00, 0.60,8.0
2018-07-16 19:30, 0.67,10.7
2018-07-16 20:00, 0.62,10.7
2018-07-16 20:30, 0.56,8.0
2018-07-16 21:00, 0.60,8.0
2018-07-16 21:30, 0.63,8.0
2018-07-16 22:00, 0.57,8.0
2018-07-16 22:30, 0.66,8.0
2018-07-16 23:00, 0.60,8.0
2018-07-16 23:30, 0.63,8.0
2018-07-17 00:00, 0.67,8.0
2018-07-17 00:30, 0.65,8.0
2018-07-17 01:00, 0.69,8.0
2018-07-17 01:30, 0.73,8.0
2018-07-17 02:00, 0.27,2.1
2018-07-17 02:30, 0.60,8.0
2018-07-17 03:00, 0.67,8.0
2018-07-17 03:30, 0.82,8.0
2018-07-17 04:00, 0.61,8.0
2018-07-17 04:30, 0.59,8.0
2018-07-17 05:00, 0.70,8.0
2018-07-17 05:30, 0.67,8.0
2018-07-17 06:00, 0.62,8.0
2018-07-17 06:30, 0.62,8.0
2018-07-17 07:00, 0.64,10.7
2018-07-17 07:30, 0.62,8.0
2018-07-17 08:00, 0.66,8.0
2018-07-17 08:30, 0.64,10.7
2018-07-17 09:00,,
2018-07-17 09:30, 0.69,10.7
2018-07-17 10:00,,
2018-07-17 10:30, 0.59,8.0
2018-07-17 11:00, 0.42,3.2
2018-07-17 11:30, 0.65,8.0
2018-07-17 12:00, 0.55,8.0
2018-07-17 12:30, 0.62,8.0
2018-07-17 13:00, 0.69,10.7
2018-07-17 13:30, 0.62,8.0
2018-07-17 14:00, 0.66,10.7
2018-07-17 14:30, 0.65,8.0
2018-07-17 15:00, 0.82,10.7
2018-07-17 15:30, 0.84,10.7
2018-07-17 16:00, 0.68,8.0
2018-07-17 16:30, 0.55,3.6
2018-07-17 17:00, 0.71,3.6
2018-07-17 17:30, 0.73,4.0
2018-07-17 18:00, 0.86,8.0
2018-07-17 18:30, 0.82,4.0
2018-07-17 19:00, 0.83,8.0
2018-07-17 19:30, 0.74,4.6
2018-07-17 20:00, 0.65,4.6
2018-07-17 20:30, 0.88,4.6
2018-07-17 21:00, 0.60,4.6
2018-07-17 21:30, 0.77,4.6
2018-07-17 22:00, 0.54,4.6
2018-07-17 22:30, 0.76,10.7
2018-07-17 23:00, 0.66,8.0
2018-07-17 23:30, 0.69,10.7
2018-07-18 00:00, 0.67,10.7
2018-07-18 00:30, 0.65,10.7
2018-07-18 01:00, 0.55,8.0
2018-07-18 01:30, 0.59,10.7
2018-07-18 02:00, 0.57,8.0
2018-07-18 02:30, 0.57,5.3
2018-07-18 03:00, 0.70,8.0
2018-07-18 03:30, 0.38,4.6
2018-07-18 04:00, 0.59,8.0
2018-07-18 04:30, 0.56,8.0
2018-07-18 05:00, 0.56,8.0
2018-07-18 05:30, 0.54,8.0
2018-07-18 06:00, 0.59,8.0
2018-07-18 06:30, 0.53,8.0
2018-07-18 07:00, 0.52,8.0
2018-07-18 07:30, 0.57,8.0
2018-07-18 08:00, 0.51,10.7
2018-07-18 08:30, 0.55,10.7
2018-07-18 09:00, 0.53,8.0
2018-07-18 09:30, 0.49,10.7
2018-07-18 10:00, 0.48,8.0
2018-07-18 10:30, 0.54,10.7
2018-07-18 11:00, 0.48,8.0
2018-07-18 11:30, 0.47,10.7
2018-07-18 12:00, 0.51,10.7
2018-07-18 12:30, 0.49,10.7
2018-07-18 13:00, 0.66,10.7
2018-07-18 13:30,,
2018-07-18 14:00, 0.57,8.0
2018-07-18 14:30, 0.64,10.7
2018-07-18 15:00, 0.40,5.3
2018-07-18 15:30, 0.56,8.0
2018-07-18 16:00, 0.61,8.0
2018-07-18 16:30,,
2018-07-18 17:00, 0.69,8.0
2018-07-18 17:30, 0.66,8.0
2018-07-18 18:00, 0.62,8.0
2018-07-18 18:30, 0.68,8.0
2018-07-18 19:00, 0.65,8.0
2018-07-18 19:30, 0.65,8.0
2018-07-18 20:00, 0.68,8.0
2018-07-18 20:30, 0.64,8.0
2018-07-18 21:00, 0.54,8.0
2018-07-18 21:30, 0.60,8.0
2018-07-18 22:00, 0.55,8.0
2018-07-18 22:30, 0.51,8.0
2018-07-18 23:00, 0.61,8.0
2018-07-18 23:30, 0.53,8.0
2018-07-19 00:00, 0.58,8.0
2018-07-19 00:30, 0.52,8.0
2018-07-19 01:00, 0.52,8.0
2018-07-19 01:30, 0.47,8.0
2018-07-19 02:00, 0.54,8.0
2018-07-19 02:30, 0.54,8.0
2018-07-19 03:00, 0.55,8.0
2018-07-19 03:30, 0.51,8.0
2018-07-19 04:00, 0.58,6.4
2018-07-19 04:30, 0.70,8.0
2018-07-19 05:00, 0.75,8.0
2018-07-19 05:30, 0.68,8.0
2018-07-19 06:00, 0.68,8.0
2018-07-19 06:30, 0.87,8.0
2018-07-19 07:00, 0.78,8.0
2018-07-19 07:30, 0.70,8.0
2018-07-19 08:00, 0.74,8.0
2018-07-19 08:30, 0.71,3.6
2018-07-19 09:00, 0.74,8.0
2018-07-19 09:30, 0.71,8.0
2018-07-19 10:00, 0.64,8.0
2018-07-19 10:30, 0.72,8.0
2018-07-19 11:00, 0.63,8.0
2018-07-19 11:30, 0.60,8.0
2018-07-19 12:00, 0.63,8.0
2018-07-19 12:30, 0.56,8.0
2018-07-19 13:00, 0.63,8.0
2018-07-19 13:30, 0.57,8.0
2018-07-19 14:00, 0.57,8.0
2018-07-19 14:30, 0.59,8.0
2018-07-19 15:00, 0.67,8.0
2018-07-19 15:30, 0.62,8.0
2018-07-19 16:00, 0.62,8.0
2018-07-19 16:30, 0.61,8.0
2018-07-19 17:00, 0.66,8.0
2018-07-19 17:30, 0.67,8.0
2018-07-19 18:00, 0.60,8.0
2018-07-19 18:30, 0.74,8.0
2018-07-19 19:00, 0.64,8.0
2018-07-19 19:30, 0.63,6.4
2018-07-19 20:00, 0.72,8.0
2018-07-19 20:30, 0.59,8.0
2018-07-19 21:00, 0.67,8.0
2018-07-19 21:30, 0.60,8.0
2018-07-19 22:00, 0.64,10.7
2018-07-19 22:30, 0.46,8.0
2018-07-19 23:00, 0.52,8.0
2018-07-19 23:30, 0.47,8.0
2018-07-20 00:00, 0.68,8.0
2018-07-20 00:30, 0.50,8.0
2018-07-20 01:00, 0.60,8.0
2018-07-20 01:30, 0.56,8.0
2018-07-20 02:00, 0.55,8.0
2018-07-20 02:30, 0.57,8.0
2018-07-20 03:00, 0.55,8.0
2018-07-20 03:30, 0.64,8.0
2018-07-20 04:00, 0.60,8.0
2018-07-20 04:30, 0.62,8.0
2018-07-20 05:00, 0.64,8.0
2018-07-20 05:30, 0.66,8.0
2018-07-20 06:00, 0.63,8.0
2018-07-20 06:30, 0.60,8.0
2018-07-20 07:00, 0.60,8.0
2018-07-20 07:30, 0.59,8.0
2018-07-20 08:00, 0.56,8.0
2018-07-20 08:30, 0.58,8.0
2018-07-20 09:00, 0.55,8.0
2018-07-20 09:30, 0.60,8.0
2018-07-20 10:00, 0.53,8.0
2018-07-20 10:30, 0.54,8.0
2018-07-20 11:00, 0.60,8.0
2018-07-20 11:30, 0.31,3.2
2018-07-20 12:00, 0.53,8.0
2018-07-20 12:30, 0.51,8.0
2018-07-20 13:00, 0.49,8.0
2018-07-20 13:30, 0.50,8.0
2018-07-20 14:00, 0.46,8.0
2018-07-20 14:30, 0.50,8.0
2018-07-20 15:00, 0.42,8.0
2018-07-20 15:30, 0.42,8.0
2018-07-20 16:00, 0.46,8.0
2018-07-20 16:30, 0.47,8.0
2018-07-20 17:00, 0.50,8.0
2018-07-20 17:30, 0.59,6.4
2018-07-20 18:00, 0.58,8.0
2018-07-20 18:30, 0.62,8.0
2018-07-20 19:00, 0.66,8.0
2018-07-20 19:30, 0.64,6.4
2018-07-20 20:00, 0.40,2.5
2018-07-20 20:30, 0.38,2.7
2018-07-20 21:00, 0.62,2.9
2018-07-20 21:30, 0.51,3.2
2018-07-20 22:00, 0.55,3.2
2018-07-20 22:30, 0.54,3.6
2018-07-20 23:00, 0.72,3.6
2018-07-20 23:30, 0.67,3.6
2018-07-21 00:00, 0.63,3.6
2018-07-21 00:30, 0.62,8.0
2018-07-21 01:00, 0.58,8.0
2018-07-21 01:30, 0.60,8.0
2018-07-21 02:00, 0.58,8.0
2018-07-21 02:30, 0.52,8.0
2018-07-21 03:00, 0.56,8.0
2018-07-21 03:30, 0.54,8.0
2018-07-21 04:00, 0.54,8.0
2018-07-21 04:30, 0.57,8.0
2018-07-21 05:00, 0.49,8.0
2018-07-21 05:30, 0.55,8.0
2018-07-21 06:00, 0.51,8.0
2018-07-21 06:30, 0.53,8.0
2018-07-21 07:00, 0.49,8.0
2018-07-21 07:30, 0.46,8.0
2018-07-21 08:00, 0.48,8.0
2018-07-21 08:30, 0.50,8.0
2018-07-21 09:00, 0.45,8.0
2018-07-21 09:30, 0.49,8.0
2018-07-21 10:00, 0.50,8.0
2018-07-21 10:30, 0.45,8.0
2018-07-21 11:00, 0.46,8.0
2018-07-21 11:30, 0.33,6.4
2018-07-21 12:00, 0.39,8.0
2018-07-21 12:30, 0.37,8.0
2018-07-21 13:00, 0.35,8.0
2018-07-21 13:30, 0.40,8.0
2018-07-21 14:00, 0.32,8.0
2018-07-21 14:30, 0.39,8.0
2018-07-21 15:00, 0.33,8.0
2018-07-21 15:30, 0.42,8.0
2018-07-21 16:00, 0.31,8.0
2018-07-21 16:30, 0.41,8.0
2018-07-21 17:00, 0.39,8.0
2018-07-21 17:30, 0.40,8.0
2018-07-21 18:00, 0.41,8.0
2018-07-21 18:30, 0.46,8.0
2018-07-21 19:00, 0.45,8.0
2018-07-21 19:30, 0.45,8.0
2018-07-21 20:00, 0.52,8.0
2018-07-21 20:30, 0.47,8.0
2018-07-21 21:00, 0.54,8.0
2018-07-21 21:30, 0.56,8.0
2018-07-21 22:00, 0.61,8.0
2018-07-21 22:30, 0.67,8.0
2018-07-21 23:00, 0.69,8.0
2018-07-21 23:30, 0.65,8.0
2018-07-22 00:00, 0.74,8.0
2018-07-22 00:30, 0.52,3.6
2018-07-22 01:00, 0.72,8.0
2018-07-22 01:30, 0.62,8.0
2018-07-22 02:00, 0.62,8.0
2018-07-22 02:30, 0.70,8.0
2018-07-22 03:00, 0.40,4.0
2018-07-22 03:30, 0.61,8.0
2018-07-22 04:00, 0.63,8.0
2018-07-22 04:30, 0.49,4.0
2018-07-22 05:00, 0.71,8.0
2018-07-22 05:30, 0.72,6.4
2018-07-22 06:00, 0.76,8.0
2018-07-22 06:30, 0.73,6.4
2018-07-22 07:00, 0.76,6.4
2018-07-22 07:30, 0.86,8.0
2018-07-22 08:00, 0.81,8.0
2018-07-22 08:30, 0.83,6.4
2018-07-22 09:00, 0.83,3.6
2018-07-22 09:30, 0.90,3.6
2018-07-22 10:00, 0.75,3.6
2018-07-22 10:30, 0.76,4.0
2018-07-22 11:00, 0.78,4.6
2018-07-22 11:30, 0.91,4.0
2018-07-22 12:00, 0.89,4.6
2018-07-22 12:30, 1.08,4.0
2018-07-22 13:00, 1.00,5.3
2018-07-22 13:30, 1.08,4.6
2018-07-22 14:00, 1.14,4.6
2018-07-22 14:30, 1.08,5.3
2018-07-22 15:00, 0.98,5.3
2018-07-22 15:30, 0.98,5.3
2018-07-22 16:00, 0.93,5.3
2018-07-22 16:30, 0.97,4.6
2018-07-22 17:00, 1.05,4.6
2018-07-22 17:30, 1.05,5.3
2018-07-22 18:00, 0.99,4.6
2018-07-22 18:30, 1.04,5.3
2018-07-22 19:00, 1.13,4.6
2018-07-22 19:30, 1.14,5.3
2018-07-22 20:00, 0.97,5.3
2018-07-22 20:30, 1.10,4.6
2018-07-22 21:00, 1.15,5.3
2018-07-22 21:30, 1.05,5.3
2018-07-22 22:00, 1.02,5.3
2018-07-22 22:30, 0.99,4.6
2018-07-22 23:00, 1.02,6.4
2018-07-22 23:30, 1.05,5.3
2018-07-23 00:00, 1.02,6.4
2018-07-23 00:30, 0.96,8.0
2018-07-23 01:00, 1.09,6.4
2018-07-23 01:30, 0.99,8.0
2018-07-23 02:00, 1.12,8.0
2018-07-23 02:30, 1.15,6.4
2018-07-23 03:00, 1.10,8.0
2018-07-23 03:30, 1.23,8.0
2018-07-23 04:00, 0.98,6.4
2018-07-23 04:30, 1.13,5.3
2018-07-23 05:00, 1.08,8.0
2018-07-23 05:30, 1.16,8.0
2018-07-23 06:00, 1.21,8.0
2018-07-23 06:30, 1.28,8.0
2018-07-23 07:00, 1.24,8.0
2018-07-23 07:30, 1.36,8.0
2018-07-23 08:00, 1.35,8.0
2018-07-23 08:30, 1.36,8.0
2018-07-23 09:00, 1.34,8.0
2018-07-23 09:30, 1.27,8.0
2018-07-23 10:00, 1.21,5.3
2018-07-23 10:30, 1.32,8.0
2018-07-23 11:00, 1.34,8.0
2018-07-23 11:30, 1.26,8.0
2018-07-23 12:00, 1.13,8.0
2018-07-23 12:30, 1.15,8.0
2018-07-23 13:00, 1.17,8.0
2018-07-23 13:30, 1.17,8.0
2018-07-23 14:00, 1.22,8.0
2018-07-23 14:30, 1.12,8.0
2018-07-23 15:00, 1.05,8.0
2018-07-23 15:30, 1.16,8.0
2018-07-23 16:00, 1.06,6.4
2018-07-23 16:30, 1.08,8.0
2018-07-23 17:00, 1.04,8.0
2018-07-23 17:30, 1.18,8.0
2018-07-23 18:00, 1.10,8.0
2018-07-23 18:30, 1.18,8.0
2018-07-23 19:00, 1.08,8.0
2018-07-23 19:30, 1.36,8.0
2018-07-23 20:00, 1.25,8.0
2018-07-23 20:30, 1.19,6.4
2018-07-23 21:00, 1.18,8.0
2018-07-23 21:30, 1.09,4.0
2018-07-23 22:00, 1.15,6.4
2018-07-23 22:30, 1.08,8.0
2018-07-23 23:00, 1.14,8.0
2018-07-23 23:30, 1.08,8.0
2018-07-24 00:00, 1.16,8.0
2018-07-24 00:30, 1.16,8.0
2018-07-24 01:00, 1.05,8.0
2018-07-24 01:30, 1.01,8.0
2018-07-24 02:00, 0.86,5.3
2018-07-24 02:30, 0.96,8.0
2018-07-24 03:00, 0.91,8.0
2018-07-24 03:30, 0.84,8.0
2018-07-24 04:00, 0.96,8.0
2018-07-24 04:30, 0.88,8.0
2018-07-24 05:00, 0.79,8.0
2018-07-24 05:30, 0.77,8.0
2018-07-24 06:00, 0.43,4.6
2018-07-24 06:30, 0.80,8.0
2018-07-24 07:00, 0.83,8.0
2018-07-24 07:30, 0.71,8.0
2018-07-24 08:00, 0.72,6.4
2018-07-24 08:30, 0.81,8.0
2018-07-24 09:00, 0.78,6.4
2018-07-24 09:30, 0.86,8.0
2018-07-24 10:00, 0.80,8.0
2018-07-24 10:30, 0.85,6.4
2018-07-24 11:00, 0.80,8.0
2018-07-24 11:30, 0.79,8.0
2018-07-24 12:00, 0.76,5.3
2018-07-24 12:30, 0.74,8.0
2018-07-24 13:00, 0.75,8.0
2018-07-24 13:30, 0.70,8.0
2018-07-24 14:00, 0.79,8.0
2018-07-24 14:30, 0.80,8.0
2018-07-24 15:00, 0.60,4.6
2018-07-24 15:30, 0.78,8.0
2018-07-24 16:00, 0.79,8.0
2018-07-24 16:30, 0.85,8.0
2018-07-24 17:00, 0.88,8.0
2018-07-24 17:30, 0.92,8.0
2018-07-24 18:00, 0.74,8.0
2018-07-24 18:30, 0.87,8.0
2018-07-24 19:00, 0.87,8.0
2018-07-24 19:30, 0.90,8.0
2018-07-24 20:00, 0.99,8.0
2018-07-24 20:30, 1.04,8.0
2018-07-24 21:00, 0.98,8.0
2018-07-24 21:30, 1.01,8.0
2018-07-24 22:00, 1.03,8.0
2018-07-24 22:30, 1.06,8.0
2018-07-24 23:00, 1.05,8.0
2018-07-24 23:30, 0.94,8.0
2018-07-25 00:00, 0.96,8.0
2018-07-25 00:30, 0.92,8.0
2018-07-25 01:00, 0.90,6.4
2018-07-25 01:30, 0.97,8.0
2018-07-25 02:00, 0.88,8.0
2018-07-25 02:30, 0.61,4.6
2018-07-25 03:00, 0.82,8.0
2018-07-25 03:30, 0.77,8.0
2018-07-25 04:00, 0.92,8.0
2018-07-25 04:30, 0.81,8.0
2018-07-25 05:00, 0.78,8.0
2018-07-25 05:30, 0.72,8.0
2018-07-25 06:00, 0.72,8.0
2018-07-25 06:30, 0.74,8.0
2018-07-25 07:00, 0.74,8.0
2018-07-25 07:30, 0.83,8.0
2018-07-25 08:00, 0.80,8.0
2018-07-25 08:30, 0.86,8.0
2018-07-25 09:00, 0.84,8.0
2018-07-25 09:30, 0.94,8.0
2018-07-25 10:00, 0.85,8.0
2018-07-25 10:30, 0.81,8.0
2018-07-25 11:00, 0.85,8.0
2018-07-25 11:30, 0.85,8.0
2018-07-25 12:00, 0.83,8.0
2018-07-25 12:30, 0.85,8.0
2018-07-25 13:00, 0.80,8.0
2018-07-25 13:30, 0.89,8.0
2018-07-25 14:00, 0.84,8.0
2018-07-25 14:30, 0.85,8.0
2018-07-25 15:00, 0.84,8.0
2018-07-25 15:30, 0.88,8.0
2018-07-25 16:00, 0.92,8.0
2018-07-25 16:30, 0.70,3.2
2018-07-25 17:00, 0.90,8.0
2018-07-25 17:30, 0.98,8.0
2018-07-25 18:00, 1.04,8.0
2018-07-25 18:30, 0.87,3.6
2018-07-25 19:00, 1.11,8.0
2018-07-25 19:30, 1.07,4.0
2018-07-25 20:00, 1.00,4.6
2018-07-25 20:30, 1.16,4.0
2018-07-25 21:00, 1.07,4.6
2018-07-25 21:30, 0.91,4.6
2018-07-25 22:00, 1.19,8.0
2018-07-25 22:30, 0.78,4.0
2018-07-25 23:00, 0.80,4.6
2018-07-25 23:30, 0.95,4.6
2018-07-26 00:00, 0.88,5.3
2018-07-26 00:30, 0.88,4.6
2018-07-26 01:00, 1.09,4.6
2018-07-26 01:30, 0.93,5.3
2018-07-26 02:00, 0.99,5.3
2018-07-26 02:30, 1.07,8.0
2018-07-26 03:00, 0.87,4.6
2018-07-26 03:30, 1.06,5.3
2018-07-26 04:00, 0.95,5.3
2018-07-26 04:30, 1.02,5.3
2018-07-26 05:00, 0.90,5.3
2018-07-26 05:30, 0.91,5.3
2018-07-26 06:00, 0.78,4.6
2018-07-26 06:30, 1.07,4.6
2018-07-26 07:00, 1.03,4.6
2018-07-26 07:30, 1.07,8.0
2018-07-26 08:00, 1.01,4.6
2018-07-26 08:30, 1.15,8.0
2018-07-26 09:00, 1.16,4.6
2018-07-26 09:30, 1.22,4.6
2018-07-26 10:00, 1.16,4.6
2018-07-26 10:30, 1.38,4.6
2018-07-26 11:00, 1.41,5.3
2018-07-26 11:30, 1.37,5.3
2018-07-26 12:00, 1.45,5.3
2018-07-26 12:30, 1.26,6.4
2018-07-26 13:00, 1.34,6.4
2018-07-26 13:30, 1.23,6.4
2018-07-26 14:00, 1.17,6.4
2018-07-26 14:30, 1.28,8.0
2018-07-26 15:00, 1.20,6.4
2018-07-26 15:30, 1.04,6.4
2018-07-26 16:00, 1.00,6.4
2018-07-26 16:30, 1.08,4.6
2018-07-26 17:00, 0.93,6.4
2018-07-26 17:30, 0.98,8.0
2018-07-26 18:00, 0.92,8.0
2018-07-26 18:30, 0.96,6.4
2018-07-26 19:00, 0.84,6.4
2018-07-26 19:30, 0.96,8.0
2018-07-26 20:00, 0.91,6.4
2018-07-26 20:30, 0.95,8.0
2018-07-26 21:00, 0.99,8.0
2018-07-26 21:30, 0.95,8.0
2018-07-26 22:00, 0.94,8.0
2018-07-26 22:30, 1.07,8.0
2018-07-26 23:00, 0.98,8.0
2018-07-26 23:30, 1.08,6.4
2018-07-27 00:00, 1.01,8.0
2018-07-27 00:30, 1.01,8.0
2018-07-27 01:00, 1.04,8.0
2018-07-27 01:30, 1.05,8.0
2018-07-27 02:00, 1.00,8.0
2018-07-27 02:30, 0.89,8.0
2018-07-27 03:00, 0.93,8.0
2018-07-27 03:30, 0.89,8.0
2018-07-27 04:00, 0.94,8.0
2018-07-27 04:30, 0.79,6.4
2018-07-27 05:00, 0.81,8.0
2018-07-27 05:30, 0.83,8.0
2018-07-27 06:00, 0.94,10.7
2018-07-27 06:30, 0.71,8.0
2018-07-27 07:00, 0.88,8.0
2018-07-27 07:30, 0.75,8.0
2018-07-27 08:00, 0.73,8.0
2018-07-27 08:30, 0.74,8.0
2018-07-27 09:00, 0.82,8.0
2018-07-27 09:30, 0.75,8.0
2018-07-27 10:00, 0.72,8.0
2018-07-27 10:30, 0.76,8.0
2018-07-27 11:00, 0.78,8.0
2018-07-27 11:30, 0.76,8.0
2018-07-27 12:00, 0.78,8.0
2018-07-27 12:30, 1.02,10.7
2018-07-27 13:00, 0.83,8.0
2018-07-27 13:30, 0.74,8.0
2018-07-27 14:00, 0.79,8.0
2018-07-27 14:30, 0.85,8.0
2018-07-27 15:00, 0.72,8.0
2018-07-27 15:30, 0.92,8.0
2018-07-27 16:00, 0.84,8.0
2018-07-27 16:30, 0.82,8.0
2018-07-27 17:00, 0.83,8.0
2018-07-27 17:30, 0.83,8.0
2018-07-27 18:00, 0.80,8.0
2018-07-27 18:30, 0.92,8.0
2018-07-27 19:00, 0.86,8.0
2018-07-27 19:30, 1.05,8.0
2018-07-27 20:00, 1.06,8.0
2018-07-27 20:30, 1.01,8.0
2018-07-27 21:00, 0.91,8.0
2018-07-27 21:30, 0.61,3.6
2018-07-27 22:00, 0.90,8.0
2018-07-27 22:30, 0.98,8.0
2018-07-27 23:00, 0.90,8.0
2018-07-27 23:30, 0.97,8.0
2018-07-28 00:00, 1.01,8.0
2018-07-28 00:30, 1.01,8.0
2018-07-28 01:00, 0.55,3.6
2018-07-28 01:30, 0.46,3.6
2018-07-28 02:00, 0.73,8.0
2018-07-28 02:30, 0.83,8.0
2018-07-28 03:00, 0.86,10.7
2018-07-28 03:30, 0.78,8.0
2018-07-28 04:00, 0.78,8.0
2018-07-28 04:30, 0.72,8.0
2018-07-28 05:00, 0.70,8.0
2018-07-28 05:30, 0.79,8.0
2018-07-28 06:00, 0.78,8.0
2018-07-28 06:30, 0.69,8.0
2018-07-28 07:00, 0.77,8.0
2018-07-28 07:30, 0.83,10.7
2018-07-28 08:00, 0.72,8.0
2018-07-28 08:30, 0.81,8.0
2018-07-28 09:00, 0.71,8.0
2018-07-28 09:30, 0.83,8.0
2018-07-28 10:00, 0.86,8.0
2018-07-28 10:30, 0.77,8.0
2018-07-28 11:00, 0.77,8.0
2018-07-28 11:30, 0.96,8.0
2018-07-28 12:00, 0.88,8.0
2018-07-28 12:30, 0.89,8.0
2018-07-28 13:00, 0.83,8.0
2018-07-28 13:30, 0.85,8.0
2018-07-28 14:00, 0.77,8.0
2018-07-28 14:30, 0.80,8.0
2018-07-28 15:00, 0.72,8.0